www.pogodaiklimat.ru

Погода и климат >> Архив погоды >> Казахстан >> Опорная


ПОГОДА в Опорной

  • Прогноз погоды в Опорной
  • Монитор погоды в Опорной

АРХИВ ПОГОДЫ в Опорной

Время (UTC), дата Ветер
(напр.,м/с)
 
Видим.   Явления Облачность Т
(С)
Тd
(С)
f
(%)
Тe
(С)
Тes
(С)
Комфортность P
(гПа)
Po
(гПа)
Тmin
(С)
Tmax
(С)
R
(мм)
R24
(мм)
S
(см)
18 11.08 З 5 н/о зарница 4/4 600 м
[Cb cap]
+23.3 +14.3 57 +27 +27 душно 1007.5 +29.5
21 11.08 З 5 н/о зарница 4/4 600 м
[Cb cap]
+21.2 +14.4 65 +24 +24 комфорт 1007.7
00 12.08 З 3 н/о ясно +17.5 +11.7 69 +18 +18 1008.1
03 12.08 СЗ 7 50 км 9/9 1000 м
[Sc]
+18.0 +11.4 65 +17 +17 1008.7
06 12.08 З 8 50 км 9/9 1000 м
[Cb cap]
+19.6 +11.2 58 +20 +20 1009.4 +17.0
09 12.08 З 8 50 км 8/8 1000 м
[Cu med, cong]
+22.4 +9.9 45 +24 +25 комфорт 1009.0
12 12.08 З 10 50 км 8/8 1000 м
[Cu med, cong]
+23.3 +10.3 44 +25 +25 комфорт 1008.6
15 12.08 З 8 50 км 3/3 1000 м
[Cu med, cong]
+22.8 +9.8 44 +25 +25 комфорт 1009.0 +23.6
18 12.08 СЗ 7 н/о 8/8 1000 м
[Sc]
+20.5 +7.0 42 +21 +21 комфорт 1010.4 +23.6
21 12.08 СЗ 5 н/о 8/8 1000 м
[Sc]
+18.3 +8.0 51 +18 +18 1010.9
00 13.08 СЗ 5 н/о 8/0
[Ac und]
+16.0 +8.1 59 +15 +15 1011.1
03 13.08 В 5 50 км ясно +15.8 +7.8 59 +15 +16 1012.5
06 13.08 СЗ 9 50 км 6/6 1000 м
[Cu med, cong]
+20.0 +3.6 34 +20 +20 1012.6 +15.6
09 13.08 З 9 50 км 3/3 1000 м
[Cu med, cong]
+22.0 +0.9 25 +22 +23 комфорт 1011.8
12 13.08 З 10 50 км 6/6 1000 м
[Cu med, cong]
+24.5 -0.2 20 +23 +23 комфорт 1011.1
15 13.08 З 8 50 км ясно +22.2 -0.2 23 +22 +22 комфорт 1011.1 +24.9
18 13.08 З 4 н/о ясно +19.0 -0.3 27 +19 +19 1011.0 +24.9
21 13.08 З 1 н/о ясно +17.1 +2.7 38 +18 +18 1012.5
00 14.08 З 1 н/о ясно +15.0 +3.0 44 +16 +16 1011.7
03 14.08 З 3 50 км 8/0
[Ac trans]
+14.2 +3.0 47 +13 +14 1012.5
06 14.08 З 6 50 км ясно +20.6 +2.5 30 +21 +25 комфорт 1013.1 +13.9
09 14.08 З 8 50 км ясно +23.0 +1.7 25 +22 +25 комфорт 1012.5
12 14.08 З 6 50 км 6/0
[Ci ing]
+24.2 +0.9 22 +23 +26 комфорт 1011.8
15 14.08 З 6 50 км ясно +22.0 +0.7 24 +21 +21 комфорт 1031.0 +24.4
18 14.08 З 3 н/о 4/0
[Ac trans]
+20.0 +1.2 29 +21 +21 комфорт 1011.5 +22.4
21 14.08 В 1 50 км ясно +18.5 +9.2 55 +20 +20 1015.2
00 15.08 З 1 н/о ясно +17.6 +4.1 41 +19 +19 1013.8
03 15.08 В 1 50 км ясно +18.5 +9.2 55 +20 +22 1015.2
06 15.08 СВ 1 50 км ясно +22.2 +11.1 49 +24 +38 комфорт 1016.2 +17.5
09 15.08 В 1 50 км ясно +26.6 +9.4 34 +27 +45 жарко 1016.2
12 15.08 СВ 2 50 км ясно +29.0 +9.5 30 +29 +36 жарко 1015.5
15 15.08 В 4 50 км ясно +28.4 +7.4 27 +28 +28 жарко 1015.4 +29.3
18 15.08 В 1 н/о ясно +24.5 +6.1 31 +24 +24 комфорт 1016.9 +29.3
21 15.08 штиль 0 н/о ясно +21.7 +5.8 36 +22 +22 комфорт 1017.0
00 16.08 штиль 0 н/о ясно +19.0 +5.3 41 +19 +19 1017.8
03 16.08 штиль 0 50 км ясно +31.0 +5.5 20 +29 +31 жарко 1017.4
06 16.08 штиль 0 50 км ясно +27.1 +4.5 23 +26 +41 жарко 1018.9 +18.6
09 16.08 штиль 0 50 км ясно +31.0 +5.5 20 +29 +49 жарко 1017.4
12 16.08 В 1 50 км ясно +33.0 +5.0 17 +31 +38 жарко 1015.9
15 16.08 штиль 0 50 км ясно +32.2 +5.6 19 +30 +30 жарко 1015.0 +33.3
18 16.08 штиль 0 н/о ясно +27.0 +5.9 26 +26 +26 жарко 1015.5 +33.3
21 16.08 В 1 н/о ясно +24.7 +6.1 30 +25 +25 комфорт 1016.1
00 17.08 штиль 0 н/о ясно +20.5 +4.8 36 +21 +21 комфорт 1016.1
03 17.08 В 1 50 км ясно +21.5 +4.3 32 +22 +24 комфорт 1016.2
06 17.08 В 1 50 км ясно +31.7 +6.2 20 +30 +43 жарко 1016.6 +20.0
09 17.08 штиль 0 50 км ясно +34.1 +5.1 16 +32 +52 опасность
солнечного
удара
1015.6
12 17.08 В 1 50 км ясно +35.8 +4.6 14 +33 +41 жарко 1014.7
15 17.08 В 1 50 км ясно +33.9 +5.1 17 +32 +32 жарко 1014.1 +36.2
18 17.08 В 1 н/о ясно +30.6 +7.6 24 +30 +30 жарко 1014.8 +36.2
21 17.08 В 3 н/о ясно +27.8 +8.6 30 +28 +28 жарко 1015.8
00 18.08 штиль 0 н/о ясно +22.6 +8.0 39 +24 +24 комфорт 1017.1
03 18.08 В 2 50 км ясно +23.1 +7.7 37 +24 +26 комфорт 1017.7
06 18.08 В 2 50 км ясно +31.9 +4.6 18 +30 +41 жарко 1018.2 +22.0
12 18.08 ЮВ 5 50 км ясно +35.8 +5.5 15 +33 +37 жарко 1016.7

 

Местоположение метеостанции Опорная (Мангистауская область, Казахстан): широта 46.13 долгота 54.58 высота над уровнем моря -4 м.

В архиве по умолчанию представлена погода в Опорной за последнюю неделю. Архивные данные за месяц целиком и за предыдущие месяцы, начиная с января 2011 года, Вы можете получить, выбрав интересующий диапазон дат из раскрывающегося списка и нажав кнопку "Ввод!".


*Определитесь, кто Вы:
робот инопланетянин человек

Внимание! Время в таблицах - всемирное. Для получения местного времени необходимо прибавить поправку, которая равна 4 ч.

Смотрите также архив погоды в соседних городах и на ближайших метеорологических станциях:

Погода в Кульсары (Атырауская область, Казахстан) (90 км)
Погода в Бейнеу (Мангистауская область, Казахстан) (102 км)
Погода в Саме (Мангистауская область, Казахстан) (144 км)
Погода в Макате (Атырауская область, Казахстан) (194 км)
Погода в Каракалпакии (Каракалпакстан, Узбекистан) (197 км)
Погода в Сай-Утесе (Мангистауская область, Казахстан) (218 км)
Погода в Атырау (Атырауская область, Казахстан) (231 км)
Погода в Сагизе (Атырауская область, Казахстан) (232 км)
Погода в Кызане (Мангистауская область, Казахстан) (256 км)
Погода в Махамбете (Атырауская область, Казахстан) (285 км)

Пояснения к столбцам:

Ветер - указаны скорость ветра в м/с - средняя за 10 мин, порывы в срок и между сроками (в фигурных скобках) и направление, откуда дует ветер: С - северный, СВ - северо-восточный, В - восточный, ЮВ - юго-восточный, Ю - южный, ЮЗ - юго-западный, З - западный, СЗ - северо-западный.
Видимость - горизонтальная дальность видимости в метрах или километрах. При видимости от 1 до 10 км при отсутствии осадков обычно наблюдается дымка, при ухудшении видимости до 1 км и менее - туман. В сухую погоду видимость может ухудшаться дымом, пылью или мглою.
Явления - указаны атмосферные явления, наблюдавшиеся в срок или в последний час перед сроком; фигурными скобками обозначены явления, наблюдавшиеся между сроками (за 1-3 часа до срока); квадратными скобками обозначены град или гололедные отложения с указанием их диаметра в мм.
Облачность - указаны через наклонную черту общая и нижняя облачность в баллах и высота нижней границы облаков в метрах; квадратными скобками обозначены формы облаков: Ci - перистые, Cs - перисто-слоистые, Cc - перисто-кучевые, Ac - высококучевые, As - высокослоистые, Sc - слоисто-кучевые, Ns - слоисто-дождевые, Cu - кучевые, Cb - кучево-дождевые. Подробнее классификацию облаков см. в Атласе облаков (PDF).
T - Температура воздуха - температура, измеренная на высоте 2 м над землей.
Td - Температура точки росы - температура, при понижении до которой содержащийся в воздухе водяной пар достигнет насыщения.
f - Относительная влажность воздуха - влажноcть воздуха, измеренная на высоте 2 м над землей.
Te - Эффективная температура - температура, которую ощущает одетый по сезону человек в тени. Характеристика душности погоды. При расчете учитывается влияние влажности воздуха и скорости ветра на теплоощущения человека.
Tes - Эффективная температура на солнце - температура, которую ощущает человек, с поправкой на солнечный нагрев. Характеристика знойности погоды. Зависит от высоты солнца над горизонтом, облачности и скорости ветра. Ночью, в пасмурную погоду, а также при ветре 12 м/с и более поправка равна нулю.
P - Атмосферное давление - приведенное к уровню моря атмосферное давление.
Po - Атмосферное давление - измеренное на уровне метеостанции атмосферное давление.
Tmin - Минимальная температура - минимум температуры воздуха на высоте 2 м над землей.
Tmax - Максимальная температура - максимум температуры воздуха на высоте 2 м над землей.
R - Количество осадков - Количество выпавших осадков за период времени, мм. При наведении курсора мыши на число - период времени, за который выпало указанное количество осадков.
R24 - Количество осадков - Количество выпавших осадков за 24 часа, мм.
S - Снежный покров - Высота снежного покрова, см. При наведении курсора мыши на число - состояние снежного покрова и степень покрытия местности в баллах.